| time (UTC) | temp F | wind direction | speed MPH | gust MPH | rain 1hr in | rain 24hr in | rain mn in | humidity % | barometer mb |
| 20260831115205 | 64 | 252 | 8.0 | 23.0 | 0.01 | 0.12 | 0.12 | 85 | 1015.5 |
| 20260831114205 | 66 | 265 | 11.0 | 30.0 | 0.00 | 0.12 | 0.11 | 74 | 1015.7 |
| 20260831113705 | 68 | 264 | 10.0 | 30.0 | 0.00 | 0.11 | 0.11 | 71 | 1015.3 |
| 20260831113206 | 69 | 302 | 13.0 | 31.0 | 0.00 | 0.11 | 0.11 | 67 | 1015.1 |
| 20260831112705 | 70 | 241 | 18.0 | 31.0 | 0.00 | 0.11 | 0.11 | 61 | 1015.0 |
| 20260831111734 | 71 | 224 | 16.0 | 23.0 | 0.00 | 0.11 | 0.11 | 58 | 1014.8 |
| 20260831111205 | 71 | 221 | 14.0 | 25.0 | 0.00 | 0.11 | 0.11 | 61 | 1014.8 |
| 20260831110205 | 71 | 233 | 16.0 | 25.0 | 0.00 | 0.11 | 0.11 | 60 | 1014.8 |
| 20260831105706 | 71 | 248 | 15.0 | 25.0 | 0.00 | 0.11 | 0.11 | 62 | 1015.0 |
| 20260831105206 | 70 | 231 | 14.0 | 21.0 | 0.00 | 0.11 | 0.11 | 61 | 1014.9 |
| 20260831104705 | 70 | 233 | 13.0 | 21.0 | 0.00 | 0.11 | 0.11 | 62 | 1014.9 |
| 20260831104206 | 70 | 252 | 14.0 | 25.0 | 0.00 | 0.11 | 0.11 | 64 | 1015.1 |
| 20260831103706 | 69 | 233 | 14.0 | 25.0 | 0.00 | 0.11 | 0.11 | 63 | 1015.1 |
| 20260831102705 | 69 | 219 | 17.0 | 27.0 | 0.00 | 0.11 | 0.11 | 64 | 1015.2 |
| 20260831102206 | 69 | 212 | 14.0 | 23.0 | 0.00 | 0.11 | 0.11 | 64 | 1015.2 |
| 20260831101205 | 68 | 255 | 14.0 | 21.0 | 0.00 | 0.11 | 0.11 | 66 | 1015.3 |
| 20260831100705 | 68 | 220 | 12.0 | 21.0 | 0.00 | 0.11 | 0.11 | 65 | 1015.3 |
| 20260831095706 | 68 | 233 | 13.0 | 23.0 | 0.00 | 0.11 | 0.11 | 65 | 1015.3 |
| 20260831095206 | 69 | 241 | 14.0 | 21.0 | 0.00 | 0.11 | 0.11 | 65 | 1015.4 |
| 20260831094705 | 68 | 248 | 13.0 | 21.0 | 0.00 | 0.11 | 0.11 | 66 | 1015.3 |
| 20260831094206 | 68 | 229 | 11.0 | 20.0 | 0.00 | 0.11 | 0.11 | 67 | 1015.3 |
| 20260831093705 | 68 | 212 | 10.0 | 20.0 | 0.00 | 0.11 | 0.11 | 67 | 1015.5 |
| 20260831093205 | 68 | 252 | 11.0 | 26.0 | 0.00 | 0.11 | 0.11 | 66 | 1015.4 |
| 20260831092205 | 69 | 238 | 13.0 | 26.0 | 0.00 | 0.11 | 0.11 | 65 | 1015.4 |
| 20260831091705 | 69 | 285 | 13.0 | 26.0 | 0.00 | 0.11 | 0.11 | 64 | 1015.5 |
| 20260831091205 | 69 | 207 | 13.0 | 22.0 | 0.00 | 0.11 | 0.11 | 65 | 1015.3 |
| 20260831090705 | 68 | 243 | 14.0 | 22.0 | 0.00 | 0.11 | 0.11 | 67 | 1015.3 |
| 20260831090206 | 67 | 269 | 14.0 | 20.0 | 0.00 | 0.11 | 0.11 | 67 | 1015.3 |
| 20260831085704 | 67 | 224 | 13.0 | 20.0 | 0.00 | 0.11 | 0.11 | 66 | 1015.4 |
| 20260831085205 | 67 | 224 | 12.0 | 26.0 | 0.00 | 0.11 | 0.11 | 67 | 1015.2 |
| 20260831084705 | 67 | 233 | 11.0 | 26.0 | 0.00 | 0.11 | 0.11 | 68 | 1015.3 |
| 20260831084205 | 67 | 226 | 12.0 | 26.0 | 0.00 | 0.11 | 0.11 | 70 | 1015.3 |
| 20260831083707 | 67 | 271 | 12.0 | 17.0 | 0.00 | 0.11 | 0.11 | 70 | 1015.2 |
| 20260831082705 | 66 | 222 | 9.0 | 15.0 | 0.00 | 0.11 | 0.11 | 74 | 1015.0 |
| 20260831082205 | 65 | 234 | 9.0 | 15.0 | 0.00 | 0.11 | 0.11 | 76 | 1015.0 |
| 20260831081705 | 65 | 243 | 8.0 | 15.0 | 0.00 | 0.11 | 0.11 | 77 | 1015.2 |
| 20260831081206 | 65 | 217 | 7.0 | 22.0 | 0.00 | 0.11 | 0.11 | 77 | 1015.1 |
| 20260831080206 | 65 | 224 | 10.0 | 22.0 | 0.00 | 0.11 | 0.11 | 77 | 1015.1 |
| 20260831075705 | 65 | 222 | 10.0 | 22.0 | 0.00 | 0.11 | 0.11 | 78 | 1014.9 |
| 20260831075205 | 65 | 224 | 10.0 | 13.0 | 0.00 | 0.11 | 0.11 | 79 | 1014.9 |
| 20260831074706 | 65 | 243 | 8.0 | 13.0 | 0.00 | 0.11 | 0.11 | 81 | 1014.9 |
| 20260831074205 | 64 | 260 | 8.0 | 15.0 | 0.00 | 0.11 | 0.11 | 82 | 1014.8 |
| 20260831073705 | 64 | 231 | 7.0 | 16.0 | 0.00 | 0.11 | 0.11 | 82 | 1014.8 |
| 20260831073205 | 64 | 229 | 8.0 | 16.0 | 0.00 | 0.11 | 0.11 | 83 | 1014.9 |
| 20260831072732 | 64 | 286 | 9.0 | 16.0 | 0.00 | 0.11 | 0.11 | 83 | 1014.9 |
| 20260831072207 | 64 | 236 | 9.0 | 16.0 | 0.00 | 0.11 | 0.11 | 84 | 1014.9 |
| 20260831071205 | 63 | 246 | 8.0 | 14.0 | 0.00 | 0.11 | 0.11 | 86 | 1014.9 |
| 20260831070706 | 63 | 265 | 9.0 | 14.0 | 0.00 | 0.11 | 0.11 | 86 | 1014.9 |
| 20260831070206 | 62 | 233 | 9.0 | 13.0 | 0.00 | 0.11 | 0.11 | 86 | 1014.9 |
| 20260831065205 | 62 | 226 | 8.0 | 14.0 | 0.00 | 0.11 | 0.11 | 88 | 1014.7 |
| 20260831064705 | 62 | 226 | 6.0 | 14.0 | 0.00 | 0.11 | 0.11 | 89 | 1014.8 |
| 20260831063708 | 61 | 215 | 6.0 | 14.0 | 0.00 | 0.11 | 0.11 | 90 | 1014.7 |
| 20260831062705 | 61 | 227 | 6.0 | 12.0 | 0.00 | 0.11 | 0.11 | 90 | 1014.6 |
| 20260831062206 | 61 | 207 | 7.0 | 13.0 | 0.00 | 0.11 | 0.11 | 90 | 1014.7 |
| 20260831061705 | 61 | 248 | 7.0 | 13.0 | 0.00 | 0.11 | 0.11 | 91 | 1014.5 |
| 20260831061205 | 61 | 231 | 8.0 | 13.0 | 0.00 | 0.11 | 0.11 | 91 | 1014.5 |
| 20260831060705 | 61 | 255 | 8.0 | 13.0 | 0.00 | 0.11 | 0.11 | 91 | 1014.4 |
| 20260831060205 | 61 | 245 | 8.0 | 13.0 | 0.00 | 0.11 | 0.11 | 92 | 1014.4 |
| 20260831055706 | 60 | 219 | 8.0 | 13.0 | 0.00 | 0.11 | 0.11 | 92 | 1014.4 |
| 20260831055206 | 60 | 252 | 8.0 | 13.0 | 0.00 | 0.11 | 0.11 | 92 | 1014.3 |
| 20260831054705 | 60 | 239 | 8.0 | 13.0 | 0.00 | 0.11 | 0.11 | 92 | 1014.4 |
| 20260831054205 | 60 | 236 | 8.0 | 15.0 | 0.00 | 0.11 | 0.11 | 92 | 1014.3 |
| 20260831053705 | 60 | 227 | 8.0 | 15.0 | 0.00 | 0.11 | 0.11 | 92 | 1014.3 |
| 20260831053232 | 60 | 219 | 8.0 | 14.0 | 0.00 | 0.11 | 0.11 | 92 | 1014.2 |
| 20260831052705 | 60 | 227 | 8.0 | 14.0 | 0.00 | 0.11 | 0.11 | 92 | 1013.9 |
| 20260831052205 | 60 | 236 | 8.0 | 15.0 | 0.00 | 0.11 | 0.11 | 92 | 1013.8 |
| 20260831051705 | 60 | 233 | 8.0 | 15.0 | 0.00 | 0.11 | 0.11 | 92 | 1013.8 |
| 20260831051205 | 60 | 276 | 8.0 | 11.0 | 0.00 | 0.11 | 0.11 | 92 | 1013.8 |
| 20260831050705 | 60 | 233 | 7.0 | 11.0 | 0.00 | 0.11 | 0.11 | 92 | 1013.7 |
| 20260831050205 | 60 | 224 | 5.0 | 7.0 | 0.00 | 0.11 | 0.11 | 92 | 1013.8 |
| 20260831045705 | 60 | 214 | 3.0 | 5.0 | 0.00 | 0.11 | 0.11 | 92 | 1013.7 |
| 20260831045205 | 60 | 195 | 3.0 | 5.0 | 0.00 | 0.11 | 0.11 | 92 | 1013.8 |
| 20260831044705 | 60 | 207 | 3.0 | 5.0 | 0.00 | 0.11 | 0.11 | 92 | 1013.8 |
| 20260831043705 | 60 | 205 | 3.0 | 8.0 | 0.00 | 0.11 | 0.11 | 92 | 1013.8 |
| 20260831043205 | 60 | 220 | 4.0 | 8.0 | 0.00 | 0.11 | 0.11 | 92 | 1013.8 |
| 20260831042706 | 60 | 248 | 5.0 | 8.0 | 0.00 | 0.11 | 0.11 | 92 | 1013.7 |
| 20260831042206 | 60 | 208 | 5.0 | 8.0 | 0.00 | 0.11 | 0.11 | 92 | 1013.7 |
| 20260831041705 | 60 | 226 | 5.0 | 9.0 | 0.00 | 0.11 | 0.11 | 91 | 1013.7 |
| 20260831040705 | 60 | 236 | 5.0 | 10.0 | 0.00 | 0.11 | 0.11 | 91 | 1013.5 |
| 20260831040206 | 60 | 255 | 6.0 | 10.0 | 0.00 | 0.11 | 0.11 | 91 | 1013.4 |
| 20260831035706 | 59 | 253 | 5.0 | 7.0 | 0.00 | 0.11 | 0.11 | 91 | 1013.4 |
| 20260831035205 | 59 | 210 | 3.0 | 7.0 | 0.00 | 0.11 | 0.11 | 91 | 1013.4 |
| 20260831034705 | 59 | 233 | 2.0 | 7.0 | 0.00 | 0.11 | 0.11 | 90 | 1013.4 |
| 20260831034206 | 59 | 307 | 2.0 | 4.0 | 0.00 | 0.11 | 0.11 | 90 | 1013.4 |
| 20260831033706 | 59 | 1 | 3.0 | 4.0 | 0.00 | 0.11 | 0.11 | 90 | 1013.3 |
| 20260831033205 | 59 | 236 | 2.0 | 5.0 | 0.00 | 0.11 | 0.11 | 90 | 1013.3 |
| 20260831032705 | 59 | 238 | 1.0 | 5.0 | 0.00 | 0.11 | 0.11 | 90 | 1013.4 |
| 20260831032206 | 59 | 240 | 1.0 | 5.0 | 0.00 | 0.11 | 0.11 | 90 | 1013.2 |
| 20260831031705 | 59 | 344 | 2.0 | 6.0 | 0.00 | 0.11 | 0.11 | 90 | 1013.1 |
| 20260831031234 | 59 | 178 | 2.0 | 6.0 | 0.00 | 0.11 | 0.11 | 90 | 1013.1 |
| 20260831030705 | 59 | 243 | 3.0 | 5.0 | 0.00 | 0.11 | 0.11 | 90 | 1013.2 |
| 20260831030229 | 59 | 39 | 3.0 | 5.0 | 0.00 | 0.11 | 0.11 | 90 | 1013.0 |
| 20260831025706 | 59 | 269 | 3.0 | 3.0 | 0.01 | 0.11 | 0.11 | 90 | 1013.2 |
| 20260831025205 | 59 | 338 | 2.0 | 3.0 | 0.01 | 0.11 | 0.11 | 89 | 1013.1 |
| 20260831024705 | 59 | 238 | 2.0 | 3.0 | 0.01 | 0.11 | 0.11 | 89 | 1012.8 |
| 20260831023705 | 59 | 253 | 1.0 | 3.0 | 0.01 | 0.11 | 0.11 | 89 | 1012.7 |
| 20260831023206 | 59 | 104 | 1.0 | 4.0 | 0.02 | 0.11 | 0.11 | 89 | 1012.7 |
| 20260831022705 | 59 | 40 | 1.0 | 4.0 | 0.02 | 0.11 | 0.11 | 89 | 1012.8 |
| 20260831021705 | 59 | 104 | 2.0 | 4.0 | 0.02 | 0.11 | 0.11 | 88 | 1012.7 |
| 20260831021205 | 59 | 106 | 2.0 | 8.0 | 0.09 | 0.11 | 0.11 | 88 | 1012.7 |
| 20260831020705 | 59 | 126 | 2.0 | 8.0 | 0.09 | 0.11 | 0.11 | 88 | 1012.8 |
| 20260831020224 | 59 | 178 | 2.0 | 8.0 | 0.11 | 0.11 | 0.11 | 88 | 1012.8 |
| 20260831015706 | 59 | 32 | 4.0 | 8.0 | 0.11 | 0.11 | 0.11 | 88 | 1012.7 |
| 20260831015206 | 59 | 89 | 4.0 | 6.0 | 0.10 | 0.11 | 0.11 | 88 | 1012.7 |
| 20260831014705 | 59 | 98 | 4.0 | 6.0 | 0.10 | 0.10 | 0.10 | 88 | 1012.8 |
| 20260831014205 | 59 | 39 | 4.0 | 6.0 | 0.10 | 0.10 | 0.10 | 87 | 1013.0 |
| 20260831013705 | 59 | 72 | 3.0 | 4.0 | 0.10 | 0.10 | 0.10 | 87 | 1013.0 |
| 20260831013205 | 59 | 96 | 2.0 | 10.0 | 0.09 | 0.10 | 0.10 | 87 | 1013.1 |
| 20260831012705 | 59 | 56 | 2.0 | 10.0 | 0.09 | 0.09 | 0.09 | 87 | 1013.1 |
| 20260831012205 | 59 | 11 | 4.0 | 10.0 | 0.08 | 0.09 | 0.09 | 87 | 1013.3 |
| 20260831011705 | 59 | 269 | 5.0 | 9.0 | 0.08 | 0.05 | 0.05 | 86 | 1013.7 |
| 20260831011205 | 60 | 227 | 3.0 | 7.0 | 0.01 | 0.02 | 0.02 | 86 | 1013.7 |
| 20260831010705 | 60 | 314 | 2.0 | 7.0 | 0.01 | 0.01 | 0.00 | 85 | 1013.0 |
| 20260831010206 | 60 | 302 | 3.0 | 4.0 | 0.00 | 0.01 | 0.00 | 84 | 1012.8 |
| 20260831005705 | 60 | 240 | 2.0 | 4.0 | 0.00 | 0.00 | 0.00 | 84 | 1012.7 |
| 20260831005205 | 60 | 46 | 2.0 | 3.0 | 0.00 | 0.00 | 0.00 | 84 | 1012.7 |
| 20260831004706 | 60 | 308 | 1.0 | 3.0 | 0.00 | 0.00 | 0.00 | 84 | 1012.5 |
| 20260831004206 | 60 | 217 | 1.0 | 2.0 | 0.00 | 0.00 | 0.00 | 84 | 1012.4 |
| 20260831003705 | 60 | 269 | 1.0 | 2.0 | 0.00 | 0.00 | 0.00 | 84 | 1012.1 |
| 20260831003205 | 60 | 215 | 1.0 | 1.0 | 0.00 | 0.00 | 0.00 | 83 | 1012.3 |
| 20260831002705 | 60 | 222 | 0.0 | 1.0 | 0.00 | 0.00 | 0.00 | 83 | 1012.2 |
| 20260831002205 | 60 | 46 | 0.0 | 2.0 | 0.00 | 0.00 | 0.00 | 83 | 1012.3 |
| 20260831001706 | 60 | 178 | 0.0 | 2.0 | 0.00 | 0.00 | 0.00 | 83 | 1012.4 |
| 20260831001205 | 60 | 178 | 1.0 | 3.0 | 0.00 | 0.00 | 0.00 | 83 | 1012.6 |
| 20260831000206 | 60 | 231 | 1.0 | 3.0 | 0.00 | 0.00 | 0.00 | 82 | 1012.6 |
| 20260830235705 | 60 | 1 | 2.0 | 3.0 | 0.00 | 0.00 | 0.00 | 82 | 1012.6 |
| 20260830235206 | 60 | 28 | 2.0 | 4.0 | 0.00 | 0.00 | 0.00 | 81 | 1012.6 |
| 20260830234706 | 60 | 46 | 1.0 | 4.0 | 0.00 | 0.00 | 0.00 | 81 | 1012.6 |
| 20260830234205 | 60 | 46 | 2.0 | 4.0 | 0.00 | 0.00 | 0.00 | 81 | 1012.7 |
| 20260830233205 | 60 | 100 | 1.0 | 2.0 | 0.00 | 0.00 | 0.00 | 81 | 1013.1 |
| 20260830232705 | 61 | 76 | 1.0 | 2.0 | 0.00 | 0.00 | 0.00 | 81 | 1013.1 |
| 20260830231706 | 61 | 89 | 0.0 | 2.0 | 0.00 | 0.00 | 0.00 | 80 | 1013.2 |
| 20260830230705 | 61 | 46 | 0.0 | 2.0 | 0.00 | 0.00 | 0.00 | 80 | 1013.2 |
| 20260830225705 | 61 | 1 | 1.0 | 2.0 | 0.00 | 0.00 | 0.00 | 78 | 1013.4 |
| 20260830224705 | 61 | 46 | 1.0 | 2.0 | 0.00 | 0.00 | 0.00 | 78 | 1013.5 |
| 20260830224206 | 61 | 104 | 1.0 | 2.0 | 0.00 | 0.00 | 0.00 | 78 | 1013.4 |
| 20260830223706 | 61 | 1 | 1.0 | 2.0 | 0.00 | 0.00 | 0.00 | 78 | 1013.4 |
| 20260830223205 | 62 | 63 | 1.0 | 4.0 | 0.00 | 0.00 | 0.00 | 77 | 1013.4 |
| 20260830222206 | 62 | 151 | 1.0 | 4.0 | 0.00 | 0.00 | 0.00 | 77 | 1013.4 |
| 20260830221706 | 62 | 108 | 1.0 | 4.0 | 0.00 | 0.00 | 0.00 | 76 | 1013.4 |
| 20260830221205 | 62 | 72 | 2.0 | 4.0 | 0.00 | 0.00 | 0.00 | 76 | 1013.5 |
| 20260830220703 | 62 | 39 | 1.0 | 4.0 | 0.00 | 0.00 | 0.00 | 76 | 1013.5 |
| 20260830220206 | 62 | 117 | 0.0 | 4.0 | 0.00 | 0.00 | 0.00 | 76 | 1013.5 |
| 20260830215705 | 62 | 46 | 0.0 | 4.0 | 0.00 | 0.00 | 0.00 | 75 | 1013.5 |
| 20260830215206 | 63 | 46 | 1.0 | 5.0 | 0.00 | 0.00 | 0.00 | 75 | 1013.5 |
| 20260830214705 | 63 | 314 | 2.0 | 5.0 | 0.00 | 0.00 | 0.00 | 75 | 1013.5 |
| 20260830214205 | 63 | 89 | 3.0 | 5.0 | 0.00 | 0.00 | 0.00 | 74 | 1013.5 |
| 20260830213704 | 63 | 96 | 3.0 | 5.0 | 0.00 | 0.00 | 0.00 | 74 | 1013.5 |
| 20260830213205 | 63 | 77 | 3.0 | 4.0 | 0.00 | 0.00 | 0.00 | 73 | 1013.6 |
| 20260830212705 | 64 | 68 | 2.0 | 4.0 | 0.00 | 0.00 | 0.00 | 73 | 1013.7 |
| 20260830212205 | 64 | 108 | 1.0 | 3.0 | 0.00 | 0.00 | 0.00 | 72 | 1013.8 |
| 20260830211706 | 64 | 76 | 1.0 | 3.0 | 0.00 | 0.00 | 0.00 | 72 | 1013.8 |
| 20260830211205 | 64 | 46 | 1.0 | 3.0 | 0.00 | 0.00 | 0.00 | 72 | 1013.8 |
| 20260830210705 | 64 | 89 | 1.0 | 3.0 | 0.00 | 0.00 | 0.00 | 71 | 1013.8 |
| 20260830210205 | 65 | 53 | 1.0 | 3.0 | 0.00 | 0.00 | 0.00 | 71 | 1013.8 |
| 20260830205705 | 65 | 46 | 0.0 | 3.0 | 0.00 | 0.00 | 0.00 | 70 | 1013.8 |
| 20260830205206 | 65 | 1 | 1.0 | 3.0 | 0.00 | 0.00 | 0.00 | 70 | 1013.9 |
| 20260830204705 | 65 | 68 | 2.0 | 3.0 | 0.00 | 0.00 | 0.00 | 70 | 1013.8 |
| 20260830204206 | 65 | 81 | 2.0 | 2.0 | 0.00 | 0.00 | 0.00 | 70 | 1013.8 |
| 20260830203705 | 66 | 56 | 1.0 | 2.0 | 0.00 | 0.00 | 0.00 | 69 | 1013.7 |
| 20260830203205 | 66 | 89 | 1.0 | 2.0 | 0.00 | 0.00 | 0.00 | 68 | 1013.7 |
| 20260830202705 | 66 | 117 | 0.0 | 2.0 | 0.00 | 0.00 | 0.00 | 68 | 1013.9 |
| 20260830201705 | 67 | 46 | 0.0 | 2.0 | 0.00 | 0.00 | 0.00 | 66 | 1013.8 |
| 20260830200206 | 68 | 46 | 0.0 | 3.0 | 0.00 | 0.00 | 0.00 | 64 | 1013.8 |
| 20260830194705 | 69 | 63 | 2.0 | 3.0 | 0.00 | 0.00 | 0.00 | 62 | 1014.0 |
| 20260830194206 | 69 | 89 | 2.0 | 3.0 | 0.00 | 0.00 | 0.00 | 62 | 1014.0 |
| 20260830193706 | 70 | 74 | 2.0 | 2.0 | 0.00 | 0.00 | 0.00 | 62 | 1014.0 |
| 20260830193206 | 70 | 63 | 1.0 | 3.0 | 0.00 | 0.00 | 0.00 | 61 | 1014.0 |
| 20260830192705 | 70 | 35 | 1.0 | 3.0 | 0.00 | 0.00 | 0.00 | 60 | 1014.0 |
| 20260830192205 | 71 | 89 | 1.0 | 3.0 | 0.00 | 0.00 | 0.00 | 60 | 1014.0 |
| 20260830191706 | 71 | 99 | 2.0 | 4.0 | 0.00 | 0.00 | 0.00 | 59 | 1014.0 |
| 20260830190720 | 71 | 140 | 2.0 | 5.0 | 0.00 | 0.00 | 0.00 | 58 | 1013.9 |
| 20260830185706 | 72 | 178 | 3.0 | 6.0 | 0.00 | 0.00 | 0.00 | 56 | 1013.7 |
| 20260830185205 | 72 | 203 | 3.0 | 6.0 | 0.00 | 0.00 | 0.00 | 55 | 1013.8 |
| 20260830184705 | 72 | 202 | 3.0 | 6.0 | 0.00 | 0.00 | 0.00 | 55 | 1013.7 |
| 20260830184205 | 73 | 178 | 3.0 | 4.0 | 0.00 | 0.00 | 0.00 | 54 | 1013.5 |
| 20260830183706 | 73 | 160 | 2.0 | 5.0 | 0.00 | 0.00 | 0.00 | 53 | 1013.4 |
| 20260830183206 | 73 | 269 | 3.0 | 5.0 | 0.00 | 0.00 | 0.00 | 53 | 1013.4 |
| 20260830182705 | 73 | 178 | 3.0 | 5.0 | 0.00 | 0.00 | 0.00 | 52 | 1013.4 |
| 20260830182206 | 74 | 185 | 3.0 | 5.0 | 0.00 | 0.00 | 0.00 | 52 | 1013.5 |
| 20260830181206 | 74 | 184 | 3.0 | 6.0 | 0.00 | 0.00 | 0.00 | 50 | 1013.4 |
| 20260830180705 | 74 | 190 | 3.0 | 6.0 | 0.00 | 0.00 | 0.00 | 50 | 1013.5 |
| 20260830180205 | 74 | 219 | 3.0 | 8.0 | 0.00 | 0.00 | 0.00 | 50 | 1013.5 |
| 20260830174705 | 74 | 222 | 4.0 | 8.0 | 0.00 | 0.00 | 0.00 | 49 | 1013.3 |
| 20260830174206 | 74 | 190 | 4.0 | 8.0 | 0.00 | 0.00 | 0.00 | 49 | 1013.3 |
| 20260830173705 | 75 | 226 | 3.0 | 7.0 | 0.00 | 0.00 | 0.00 | 49 | 1013.3 |
| 20260830173205 | 75 | 226 | 3.0 | 8.0 | 0.00 | 0.00 | 0.00 | 49 | 1013.2 |
| 20260830172205 | 75 | 229 | 4.0 | 8.0 | 0.00 | 0.00 | 0.00 | 48 | 1013.2 |
| 20260830171705 | 75 | 236 | 4.0 | 9.0 | 0.00 | 0.00 | 0.00 | 47 | 1013.3 |
| 20260830171224 | 75 | 222 | 4.0 | 12.0 | 0.00 | 0.00 | 0.00 | 48 | 1013.2 |
| 20260830170228 | 75 | 231 | 6.0 | 12.0 | 0.00 | 0.00 | 0.00 | 47 | 1013.2 |
| 20260830165705 | 76 | 229 | 6.0 | 12.0 | 0.00 | 0.00 | 0.00 | 46 | 1013.3 |
| 20260830165206 | 76 | 220 | 5.0 | 10.0 | 0.00 | 0.00 | 0.00 | 47 | 1013.2 |
| 20260830163705 | 75 | 236 | 5.0 | 10.0 | 0.00 | 0.00 | 0.00 | 46 | 1013.3 |
| 20260830163206 | 75 | 248 | 5.0 | 11.0 | 0.00 | 0.00 | 0.00 | 46 | 1013.2 |
| 20260830162205 | 75 | 265 | 6.0 | 14.0 | 0.00 | 0.00 | 0.00 | 46 | 1013.2 |
| 20260830161705 | 76 | 246 | 6.0 | 14.0 | 0.00 | 0.00 | 0.00 | 45 | 1013.2 |
| 20260830161205 | 76 | 236 | 6.0 | 17.0 | 0.00 | 0.00 | 0.00 | 45 | 1013.1 |
| 20260830160704 | 76 | 310 | 7.0 | 17.0 | 0.00 | 0.00 | 0.00 | 44 | 1013.2 |
| 20260830155705 | 76 | 269 | 8.0 | 17.0 | 0.00 | 0.00 | 0.00 | 43 | 1013.3 |
| 20260830154705 | 77 | 245 | 9.0 | 17.0 | 0.00 | 0.00 | 0.00 | 43 | 1013.3 |
| 20260830154206 | 77 | 259 | 11.0 | 17.0 | 0.00 | 0.00 | 0.00 | 42 | 1013.2 |
| 20260830153706 | 77 | 238 | 10.0 | 17.0 | 0.00 | 0.00 | 0.00 | 42 | 1013.4 |
| 20260830153206 | 77 | 257 | 8.0 | 17.0 | 0.00 | 0.00 | 0.00 | 42 | 1013.3 |
| 20260830152705 | 77 | 269 | 8.0 | 17.0 | 0.00 | 0.00 | 0.00 | 42 | 1013.3 |
| 20260830152205 | 77 | 286 | 8.0 | 18.0 | 0.00 | 0.00 | 0.00 | 42 | 1013.3 |
| 20260830151705 | 77 | 238 | 8.0 | 18.0 | 0.00 | 0.00 | 0.00 | 43 | 1013.5 |
| 20260830151205 | 77 | 245 | 9.0 | 20.0 | 0.00 | 0.00 | 0.00 | 42 | 1013.5 |
| 20260830150707 | 77 | 253 | 9.0 | 20.0 | 0.00 | 0.00 | 0.00 | 43 | 1013.4 |
| 20260830150205 | 77 | 236 | 9.0 | 20.0 | 0.00 | 0.00 | 0.00 | 43 | 1013.5 |
| 20260830145706 | 77 | 252 | 9.0 | 20.0 | 0.00 | 0.00 | 0.00 | 43 | 1013.4 |
| 20260830145206 | 77 | 250 | 7.0 | 18.0 | 0.00 | 0.00 | 0.00 | 44 | 1013.3 |
| 20260830144706 | 77 | 271 | 8.0 | 18.0 | 0.00 | 0.00 | 0.00 | 44 | 1013.4 |
| 20260830144232 | 77 | 210 | 10.0 | 18.0 | 0.00 | 0.00 | 0.00 | 44 | 1013.5 |
| 20260830143705 | 77 | 238 | 10.0 | 15.0 | 0.00 | 0.00 | 0.00 | 43 | 1013.4 |
| 20260830143206 | 77 | 221 | 8.0 | 17.0 | 0.00 | 0.00 | 0.00 | 43 | 1013.4 |
| 20260830142705 | 77 | 243 | 9.0 | 17.0 | 0.00 | 0.00 | 0.00 | 43 | 1013.4 |
| 20260830142206 | 77 | 214 | 10.0 | 17.0 | 0.00 | 0.00 | 0.00 | 43 | 1013.4 |
| 20260830141705 | 78 | 229 | 10.0 | 17.0 | 0.00 | 0.00 | 0.00 | 42 | 1013.5 |
| 20260830141205 | 78 | 243 | 9.0 | 17.0 | 0.00 | 0.00 | 0.00 | 42 | 1013.4 |
| 20260830140705 | 78 | 293 | 8.0 | 17.0 | 0.00 | 0.00 | 0.00 | 43 | 1013.6 |
| 20260830140205 | 78 | 250 | 8.0 | 17.0 | 0.00 | 0.00 | 0.00 | 44 | 1013.7 |
| 20260830135705 | 78 | 281 | 9.0 | 17.0 | 0.00 | 0.00 | 0.00 | 42 | 1013.7 |
| 20260830135205 | 78 | 307 | 9.0 | 21.0 | 0.00 | 0.00 | 0.00 | 43 | 1013.7 |
| 20260830134704 | 77 | 250 | 11.0 | 21.0 | 0.00 | 0.00 | 0.00 | 43 | 1013.7 |
| 20260830134205 | 78 | 265 | 12.0 | 21.0 | 0.00 | 0.00 | 0.00 | 43 | 1013.6 |
| 20260830133705 | 78 | 201 | 11.0 | 20.0 | 0.00 | 0.00 | 0.00 | 44 | 1013.7 |
| 20260830133205 | 78 | 229 | 10.0 | 22.0 | 0.00 | 0.00 | 0.00 | 43 | 1013.9 |
| 20260830131705 | 77 | 219 | 13.0 | 21.0 | 0.00 | 0.00 | 0.00 | 44 | 1013.8 |
| 20260830130705 | 78 | 201 | 11.0 | 18.0 | 0.00 | 0.00 | 0.00 | 42 | 1013.6 |
| 20260830130205 | 78 | 236 | 12.0 | 18.0 | 0.00 | 0.00 | 0.00 | 43 | 1013.7 |
| 20260830125206 | 78 | 253 | 10.0 | 20.0 | 0.00 | 0.00 | 0.00 | 45 | 1013.9 |
| 20260830124206 | 78 | 255 | 10.0 | 20.0 | 0.00 | 0.00 | 0.00 | 44 | 1013.8 |
| 20260830123705 | 77 | 233 | 10.0 | 17.0 | 0.00 | 0.00 | 0.00 | 45 | 1014.0 |
| 20260830123205 | 77 | 220 | 11.0 | 17.0 | 0.00 | 0.00 | 0.00 | 45 | 1013.9 |
| 20260830122705 | 77 | 243 | 10.0 | 17.0 | 0.00 | 0.00 | 0.00 | 44 | 1014.0 |
| 20260830121205 | 76 | 248 | 10.0 | 21.0 | 0.00 | 0.00 | 0.00 | 47 | 1014.0 |
| 20260830120704 | 76 | 240 | 9.0 | 21.0 | 0.00 | 0.00 | 0.00 | 48 | 1014.3 |
| 20260830120205 | 76 | 250 | 8.0 | 21.0 | 0.00 | 0.00 | 0.00 | 48 | 1014.0 |